Muskegon, MI

1:50 AM EST on November 13, 2019 (GMT -0500)
Muskegon County

Weather History for KMKG - September, 2019

Change the Weather History Date:

Tuesday, September 10, 2019

  Actual Average Record
Temperature  
Mean Temperature 74 °F 64 °F  
Max Temperature 83 °F 74 °F 88 °F (1961)
Min Temperature 65 °F 55 °F 39 °F (1995)
Degree Days  
Heating Degree Days 0 3  
Month to date heating degree days 20 23  
Since 1 July heating degree days 24 53  
Cooling Degree Days 9 2  
Month to date cooling degree days 17 31  
Year to date cooling degree days 562 538  
Growing Degree Days 22 (Base 50)    
Moisture  
Dew Point 65 °F    
Average Humidity 77    
Maximum Humidity 90    
Minimum Humidity 63    
Precipitation  
Precipitation 1.56 in 0.13 in 4.06 in (1986)
Month to date precipitation 1.63 1.23  
Year to date precipitation 28.76 21.81  
Snow  
Snow 0.00 in 0.00 in - ()
Month to date snowfall 0.0 0.0  
Since 1 July snowfall 0.0 0.0  
Since 1 September snowfall 0.0 0.0  
Snow Depth 0.00 in    
Sea Level Pressure  
Sea Level Pressure 30.08 in    
Wind  
Wind Speed 9 mph (South)    
Max Wind Speed 22 mph    
Max Gust Speed 31 mph    
Visibility 7 miles    
Events Fog , Rain , Thunderstorm    
T = Trace of Precipitation, MM = Missing Value Source: NWS Daily Summary

Daily Weather History Graph

Daily Weather History Graph

Search for Another Location

Airport or City:

Astronomy

Sep. 10, 2019 Rise Set
Actual Time 7:18 AM EDT 8:04 PM EDT
Civil Twilight 6:50 AM EDT 8:33 PM EDT
Nautical Twilight 6:15 AM EDT 9:07 PM EDT
Astronomical Twilight 5:40 AM EDT 9:42 PM EDT
Moon 6:46 PM EDT (9/10) 3:37 AM EDT (9/10)
Length of Visible Light 13h 43m
Length of Day
12h 45m
Waxing Gibbous, 89% of the Moon is Illuminated
Sep 10
Waxing Gibbous
Sep 14
Full
Sep 21
Last Quarter
Sep 28
New
Oct 5
First Quarter

Hourly Weather History & Observations

Time (EDT) Temp. Heat Index Dew Point Humidity Pressure Visibility Wind Dir Wind Speed Gust Speed Precip Events Conditions
12:55 AM 66.0 °F - 57.9 °F 75% 30.11 in 10.0 mi ESE 10.4 mph - N/A   Overcast
1:55 AM 64.9 °F - 59.0 °F 81% 30.09 in 10.0 mi SE 10.4 mph - N/A   Clear
2:55 AM 66.9 °F - 59.0 °F 76% 30.08 in 10.0 mi SE 11.5 mph - N/A   Clear
3:55 AM 69.1 °F - 60.1 °F 73% 30.07 in 10.0 mi SSE 12.7 mph 20.7 mph N/A   Clear
4:55 AM 69.1 °F - 60.1 °F 73% 30.07 in 10.0 mi SSE 6.9 mph - N/A   Mostly Cloudy
5:55 AM 71.1 °F - 61.0 °F 70% 30.09 in 10.0 mi SSW 9.2 mph 19.6 mph N/A   Mostly Cloudy
6:04 AM 68.0 °F - 60.1 °F 76% 30.10 in 10.0 mi WSW 9.2 mph - N/A   Overcast
6:37 AM 69.1 °F - 62.1 °F 78% 30.08 in 10.0 mi South 8.1 mph - N/A   Mostly Cloudy
6:55 AM 69.1 °F - 62.1 °F 78% 30.08 in 10.0 mi South 9.2 mph - N/A   Overcast
7:20 AM 70.0 °F - 63.0 °F 78% 30.12 in 10.0 mi SW 11.5 mph 16.1 mph N/A   Overcast
7:34 AM 69.1 °F - 64.0 °F 84% 30.10 in 10.0 mi SSW 8.1 mph - 0.00 in Rain , Thunderstorm Light Thunderstorms and Rain
7:55 AM 68.0 °F - 64.0 °F 87% 30.11 in 4.0 mi SSW 6.9 mph - 0.04 in Rain , Thunderstorm Thunderstorms and Rain
8:08 AM 68.0 °F - 64.9 °F 90% 30.13 in 2.5 mi SSW 8.1 mph - 0.06 in Rain , Thunderstorm Thunderstorms and Rain
8:55 AM 69.1 °F - 66.0 °F 90% 30.09 in 2.5 mi South 4.6 mph - 0.24 in Rain , Thunderstorm Thunderstorms and Rain
9:16 AM 69.1 °F - 64.9 °F 87% 30.12 in 1.2 mi SW 6.9 mph - 0.09 in Rain Heavy Rain
9:28 AM 69.1 °F - 64.9 °F 87% 30.12 in 2.0 mi WSW 10.4 mph - 0.12 in Rain Rain
9:33 AM 69.1 °F - 64.9 °F 87% 30.11 in 1.5 mi WSW 9.2 mph - 0.16 in Rain , Thunderstorm Heavy Thunderstorms and Rain
9:51 AM 68.0 °F - 64.4 °F 88% 30.10 in 2.0 mi South 6.9 mph - 0.24 in Rain , Thunderstorm Heavy Thunderstorms and Rain
9:55 AM 68.0 °F - 64.9 °F 90% 30.10 in 1.5 mi South 6.9 mph - 0.30 in Rain , Thunderstorm Heavy Thunderstorms and Rain
10:16 AM 68.0 °F - 64.9 °F 90% 30.10 in 2.5 mi SSE 10.4 mph - 0.12 in Rain , Thunderstorm Thunderstorms and Rain
10:27 AM 68.0 °F - 64.9 °F 90% 30.12 in 1.0 mi SSW 5.8 mph - 0.32 in Rain , Thunderstorm Heavy Thunderstorms and Rain
10:38 AM 68.0 °F - 64.9 °F 90% 30.11 in 0.5 mi South 5.8 mph - 0.51 in Fog , Rain , Thunderstorm Heavy Thunderstorms and Rain
10:55 AM 69.1 °F - 64.9 °F 87% 30.10 in 2.5 mi South 9.2 mph - 0.69 in Rain , Thunderstorm Thunderstorms and Rain
11:37 AM 69.1 °F - 66.0 °F 90% 30.10 in 10.0 mi South 9.2 mph - 0.10 in Thunderstorm Thunderstorm
11:43 AM 69.1 °F - 66.0 °F 90% 30.11 in 1.0 mi SSW 5.8 mph - 0.14 in Rain , Thunderstorm Heavy Thunderstorms and Rain
11:51 AM 69.8 °F - 66.2 °F 88% 30.08 in 3.0 mi SE 8.1 mph - 0.25 in Rain , Thunderstorm Thunderstorms and Rain
11:55 AM 69.1 °F - 66.0 °F 90% 30.07 in 3.0 mi SSE 9.2 mph - 0.26 in Rain , Thunderstorm Light Thunderstorms and Rain
12:31 PM 71.1 °F - 66.9 °F 87% 30.07 in 10.0 mi SSE 9.2 mph - 0.01 in   Overcast
12:55 PM 73.9 °F - 69.1 °F 85% 30.08 in 10.0 mi South 9.2 mph - 0.01 in   Overcast
1:55 PM 75.9 °F - 68.0 °F 76% 30.05 in 10.0 mi South 12.7 mph - 0.01 in   Overcast
2:55 PM 82.0 °F 84.9 °F 68.0 °F 62% 30.02 in 10.0 mi South 16.1 mph 26.5 mph N/A   Overcast
3:55 PM 82.9 °F 85.8 °F 68.0 °F 60% 30.01 in 10.0 mi South 19.6 mph 29.9 mph N/A   Mostly Cloudy
4:55 PM 75.9 °F - 66.0 °F 71% 30.03 in 10.0 mi SSW 11.5 mph - N/A   Overcast
5:14 PM 75.0 °F - 66.0 °F 73% 30.02 in 10.0 mi SSW 5.8 mph - 0.00 in Rain , Thunderstorm Light Thunderstorms and Rain
5:55 PM 73.9 °F - 68.0 °F 82% 30.03 in 10.0 mi SW 15.0 mph 24.2 mph 0.01 in Rain , Thunderstorm Light Thunderstorms and Rain
6:07 PM 75.0 °F - 64.9 °F 71% 30.03 in 10.0 mi South 9.2 mph 21.9 mph 0.00 in   Mostly Cloudy
6:55 PM 75.0 °F - 66.0 °F 73% 30.02 in 10.0 mi South 4.6 mph - 0.00 in   Mostly Cloudy
7:55 PM 73.0 °F - 66.9 °F 81% 30.02 in 9.0 mi SW 8.1 mph - N/A   Mostly Cloudy
8:55 PM 71.1 °F - 66.0 °F 84% 30.04 in 8.0 mi SW 5.8 mph - N/A   Scattered Clouds
9:55 PM 70.0 °F - 66.0 °F 87% 30.05 in 7.0 mi SW 6.9 mph - N/A   Scattered Clouds
10:55 PM 70.0 °F - 66.0 °F 87% 30.06 in 8.0 mi SW 4.6 mph - N/A   Scattered Clouds
11:55 PM 68.0 °F - 64.9 °F 90% 30.07 in 5.0 mi Calm Calm - N/A   Clear